• In Germany
  • List of Countries
  • For 7 days
  • Water Temperature
  • Satellite Maps
  • Weather Map
  • Weather Widgets
  • user-avatar
    Login

    Hourly Weather Iraklion

    Today, 25 May, Friday

    Time Temperature Precipitation Wind Pressure Humidity
    00:00 +21°C° 0 mm 5 mps 751 mmHg 79%
    01:00 +20°C° 0 mm 5 mps 751 mmHg 79%
    02:00 +20°C° 0 mm 4 mps 750 mmHg 78%
    03:00 +20°C° 0 mm 4 mps 750 mmHg 77%
    04:00 +20°C° 0 mm 4 mps 750 mmHg 75%
    05:00 +20°C° 0 mm 4 mps 750 mmHg 74%
    06:00 +21°C° 0 mm 4 mps 750 mmHg 69%
    07:00 +23°C° 0 mm 5 mps 750 mmHg 63%
    08:00 +25°C° 0 mm 5 mps 750 mmHg 58%
    09:00 +26°C° 0 mm 5 mps 751 mmHg 56%
    10:00 +27°C° 0 mm 5 mps 751 mmHg 54%
    11:00 +28°C° 0 mm 5 mps 751 mmHg 52%
    12:00 +28°C° 0 mm 5 mps 751 mmHg 51%
    13:00 +28°C° 0 mm 5 mps 751 mmHg 50%
    14:00 +29°C° 0 mm 5 mps 751 mmHg 49%
    15:00 +28°C° 0 mm 5 mps 751 mmHg 49%
    16:00 +28°C° 0 mm 5 mps 751 mmHg 49%
    17:00 +28°C° 0 mm 5 mps 751 mmHg 48%
    18:00 +27°C° 0 mm 5 mps 751 mmHg 52%
    19:00 +25°C° 0 mm 5 mps 751 mmHg 57%
    20:00 +23°C° 0 mm 5 mps 751 mmHg 61%
    21:00 +22°C° 0 mm 5 mps 751 mmHg 64%
    22:00 +22°C° 0 mm 5 mps 751 mmHg 68%
    23:00 +21°C° 0 mm 5 mps 752 mmHg 71%

    Tomorrow, 26 May, Saturday

    Time Temperature Precipitation Wind Pressure Humidity
    00:00 +21°C° 0 mm 5 mps 752 mmHg 74%
    01:00 +21°C° 0 mm 6 mps 751 mmHg 77%
    02:00 +21°C° 0 mm 6 mps 751 mmHg 80%
    03:00 +20°C° 0 mm 6 mps 751 mmHg 80%
    04:00 +20°C° 0 mm 6 mps 751 mmHg 80%
    05:00 +20°C° 0 mm 6 mps 751 mmHg 80%
    06:00 +21°C° 0 mm 7 mps 751 mmHg 74%
    07:00 +23°C° 0 mm 7 mps 751 mmHg 68%
    08:00 +24°C° 0 mm 7 mps 751 mmHg 62%
    09:00 +26°C° 0.1 mm 7 mps 752 mmHg 60%
    10:00 +26°C° 0.1 mm 8 mps 752 mmHg 57%
    11:00 +27°C° 0.1 mm 8 mps 752 mmHg 55%
    12:00 +27°C° 0.1 mm 8 mps 752 mmHg 54%
    13:00 +28°C° 0.1 mm 7 mps 752 mmHg 53%
    14:00 +28°C° 0.1 mm 7 mps 752 mmHg 53%
    15:00 +27°C° 0 mm 7 mps 752 mmHg 54%
    16:00 +27°C° 0 mm 7 mps 752 mmHg 56%
    17:00 +27°C° 0 mm 7 mps 752 mmHg 57%
    18:00 +24°C° 0 mm 6 mps 752 mmHg 62%
    19:00 +23°C° 0 mm 6 mps 752 mmHg 67%
    20:00 +22°C° 0 mm 6 mps 752 mmHg 72%
    21:00 +22°C° 0.1 mm 6 mps 752 mmHg 73%
    22:00 +22°C° 0.1 mm 5 mps 752 mmHg 75%
    23:00 +22°C° 0.1 mm 5 mps 752 mmHg 76%

    Day after tomorrow, 27 May, Sunday

    Time Temperature Precipitation Wind Pressure Humidity
    00:00 +21°C° 0.2 mm 5 mps 752 mmHg 77%
    01:00 +21°C° 0.2 mm 5 mps 752 mmHg 78%
    02:00 +21°C° 0.2 mm 5 mps 751 mmHg 79%
    03:00 +21°C° 0.3 mm 5 mps 751 mmHg 80%
    04:00 +21°C° 0.3 mm 6 mps 751 mmHg 81%
    05:00 +21°C° 0.3 mm 6 mps 751 mmHg 82%
    06:00 +22°C° 0.2 mm 6 mps 752 mmHg 76%
    07:00 +23°C° 0.2 mm 6 mps 752 mmHg 70%
    08:00 +24°C° 0.2 mm 7 mps 753 mmHg 64%
    09:00 +26°C° 0.1 mm 7 mps 753 mmHg 62%
    10:00 +27°C° 0.1 mm 7 mps 753 mmHg 59%
    11:00 +27°C° 0.1 mm 7 mps 753 mmHg 57%
    12:00 +27°C° 0.1 mm 6 mps 753 mmHg 56%
    13:00 +28°C° 0.1 mm 6 mps 753 mmHg 56%
    14:00 +28°C° 0.1 mm 6 mps 753 mmHg 56%
    15:00 +28°C° 0.1 mm 6 mps 753 mmHg 57%
    16:00 +27°C° 0.1 mm 6 mps 753 mmHg 58%
    17:00 +27°C° 0.1 mm 6 mps 753 mmHg 59%
    18:00 +26°C° 0.1 mm 6 mps 753 mmHg 63%
    19:00 +24°C° 0.1 mm 6 mps 754 mmHg 68%
    20:00 +23°C° 0.1 mm 5 mps 754 mmHg 73%
    21:00 +22°C° 0 mm 5 mps 754 mmHg 74%
    22:00 +22°C° 0 mm 5 mps 754 mmHg 76%
    23:00 +22°C° 0 mm 5 mps 754 mmHg 78%

    28 May, Monday

    Time Temperature Precipitation Wind Pressure Humidity
    00:00 +22°C° 0 mm 5 mps 754 mmHg 79%
    01:00 +21°C° 0 mm 5 mps 754 mmHg 81%
    02:00 +21°C° 0 mm 6 mps 753 mmHg 82%
    03:00 +21°C° 0 mm 5 mps 753 mmHg 82%
    04:00 +21°C° 0 mm 5 mps 753 mmHg 83%
    05:00 +21°C° 0 mm 5 mps 753 mmHg 83%
    06:00 +22°C° 0.1 mm 5 mps 753 mmHg 78%
    07:00 +23°C° 0.1 mm 6 mps 753 mmHg 72%
    08:00 +24°C° 0.1 mm 6 mps 754 mmHg 67%
    09:00 +26°C° 0 mm 7 mps 754 mmHg 64%
    10:00 +26°C° 0 mm 7 mps 754 mmHg 61%
    11:00 +27°C° 0 mm 7 mps 754 mmHg 58%
    12:00 +27°C° 0 mm 7 mps 754 mmHg 57%
    13:00 +28°C° 0 mm 7 mps 754 mmHg 55%
    14:00 +28°C° 0 mm 7 mps 754 mmHg 54%
    15:00 +27°C° 0 mm 7 mps 753 mmHg 54%
    16:00 +27°C° 0 mm 6 mps 753 mmHg 55%
    17:00 +27°C° 0 mm 6 mps 753 mmHg 56%
    18:00 +24°C° 0 mm 6 mps 753 mmHg 60%
    19:00 +23°C° 0 mm 6 mps 753 mmHg 65%
    20:00 +22°C° 0 mm 6 mps 753 mmHg 70%
    21:00 +21°C° 0 mm 6 mps 753 mmHg 72%
    22:00 +21°C° 0 mm 6 mps 753 mmHg 74%
    23:00 +21°C° 0 mm 6 mps 753 mmHg 75%

    29 May, Tuesday

    Time Temperature Precipitation Wind Pressure Humidity
    00:00 +20°C° 0 mm 6 mps 753 mmHg 75%
    01:00 +20°C° 0 mm 6 mps 753 mmHg 76%
    02:00 +20°C° 0 mm 7 mps 752 mmHg 76%
    03:00 +20°C° 0.1 mm 7 mps 752 mmHg 77%
    04:00 +20°C° 0.1 mm 7 mps 752 mmHg 79%
    05:00 +21°C° 0.1 mm 7 mps 752 mmHg 80%
    06:00 +22°C° 0.1 mm 7 mps 752 mmHg 75%
    07:00 +23°C° 0.1 mm 7 mps 752 mmHg 70%
    08:00 +24°C° 0.1 mm 7 mps 753 mmHg 65%
    09:00 +26°C° 0.1 mm 7 mps 753 mmHg 62%
    10:00 +26°C° 0.1 mm 7 mps 753 mmHg 60%
    11:00 +27°C° 0.1 mm 7 mps 753 mmHg 57%
    12:00 +27°C° 0.1 mm 7 mps 753 mmHg 56%
    13:00 +27°C° 0.1 mm 7 mps 753 mmHg 55%
    14:00 +28°C° 0.1 mm 7 mps 753 mmHg 54%
    15:00 +27°C° 0 mm 7 mps 752 mmHg 55%
    16:00 +27°C° 0 mm 7 mps 752 mmHg 57%
    17:00 +26°C° 0 mm 7 mps 752 mmHg 58%
    18:00 +24°C° 0 mm 6 mps 752 mmHg 62%
    19:00 +23°C° 0 mm 6 mps 752 mmHg 67%
    20:00 +22°C° 0 mm 6 mps 752 mmHg 72%
    21:00 +22°C° 0 mm 6 mps 752 mmHg 73%
    22:00 +21°C° 0 mm 6 mps 752 mmHg 75%
    23:00 +21°C° 0 mm 6 mps 752 mmHg 77%

    30 May, Wednesday

    Time Temperature Precipitation Wind Pressure Humidity
    00:00 +21°C° 0 mm 6 mps 752 mmHg 77%
    01:00 +21°C° 0 mm 6 mps 751 mmHg 77%
    02:00 +20°C° 0 mm 6 mps 751 mmHg 77%
    03:00 +20°C° 0 mm 6 mps 751 mmHg 77%
    04:00 +20°C° 0 mm 6 mps 751 mmHg 77%
    05:00 +21°C° 0 mm 7 mps 751 mmHg 78%
    06:00 +22°C° 0.1 mm 7 mps 751 mmHg 74%
    07:00 +23°C° 0.1 mm 7 mps 751 mmHg 69%
    08:00 +24°C° 0.1 mm 7 mps 752 mmHg 65%
    09:00 +24°C° 0.1 mm 7 mps 752 mmHg 64%
    10:00 +26°C° 0.1 mm 7 mps 752 mmHg 62%
    11:00 +27°C° 0.1 mm 7 mps 752 mmHg 61%
    12:00 +27°C° 0 mm 7 mps 752 mmHg 58%
    13:00 +28°C° 0 mm 7 mps 752 mmHg 56%
    14:00 +28°C° 0 mm 7 mps 752 mmHg 54%
    15:00 +28°C° 0 mm 6 mps 752 mmHg 55%
    16:00 +28°C° 0 mm 6 mps 752 mmHg 56%
    17:00 +27°C° 0 mm 6 mps 752 mmHg 56%
    18:00 +26°C° 0 mm 5 mps 752 mmHg 61%
    19:00 +25°C° 0 mm 5 mps 752 mmHg 66%
    20:00 +23°C° 0 mm 5 mps 752 mmHg 71%
    21:00 +22°C° 0 mm 5 mps 752 mmHg 73%
    22:00 +22°C° 0 mm 5 mps 752 mmHg 76%
    23:00 +21°C° 0 mm 5 mps 752 mmHg 78%
    Show more